OBJECT D, 56746

Orbit data source: Space-Track

You're viewing an Uncataloged Satellite

Recently launched and/or uncataloged satellites may have evolving metadata. Metadata may include but not limited to: Owner, Maufacturer, Bus, Motor, and Mission.

OBJECT D, 56746 is a satellite owned by KASI (KR) in SSO that was launched on Thu, 25 May 2023 UTC via an NURI launch vehicle from the Naro Space Center, South Korea (NSC). Unknown objects in Earth's orbit typically refer to objects detected orbiting the Earth but have not yet been identified or cataloged. These objects could be anything from previously untracked satellites, spent rocket stages, debris from satellite collisions, or even natural meteoroids temporarily captured by Earth's gravity.

Loading next visibility...
Identifier
56746, 2023-072D
Orbit
SSO
Last TLE update
7 hours ago
Origin
Flag of KRKASI (KR / SKOR)
Manufacturer
KASI
Mission
Operational Civil Ast/Sci
Bus & Motor
CUBESAT 6U, Unknown motor
Mass
10 kg wet, 10 kg dry
Launch date (UTC)
2023-05-25 (2 years ago)
Launch vehicle
NURI
Launch site
Naro Space Center, South Korea (NSC)
Object type
Unknown
Shape & HBR
Box + 2 Pan, 0.7 m
Radar Cross Section
0.054 m², Small (<0.1 m²)

Expand to show TLE details & history

TLE from 7 hours ago
0 OBJECT D
1 56746U 23072D   25127.48022390  .00022696  00000-0  68407-3 0  9990
2 56746  97.5361 322.8878 0004095   5.4343 354.6943 15.34319698108110
Epoch: 2025-05-07T11:31Z
Definitive object data (Epoch: 2025-05-07T11:31:31.344Z)
Latitude
-0.00008°
Longitude
-75.55726°
Altitude
463.258 km
Speed
7.636 km/s
True Right ascension
21h 31m 33s
True Declination
0° 00' 00"
Sunlit
Object was in daylight at TLE epoch
Visualization TLE readout
Latitude
21.39051°
Longitude
107.69225°
Altitude
468.218 km
Speed
7.633 km/s
Apparent Right ascension
11h 46m 18s
Apparent Declination
-9° 48' 58"
Sunlit
Object is in daylight
Visualization observer readout
Local Sidereal Time
02:31:23
Azimuth
62.076° ENE
Elevation
-42.644°
Doppler factor
1
Orbital elements
Apogee altitude
462.695 km
Perigee altitude
457.094 km
Semi-major axis
6,838.031 km
Eccentricity
0.0004095
Inclination
97.5361°
RAAN
322.8878°
Arg. of periapsis
5.4343°
True anomaly
354.68996°
Mean anomaly
354.6943°
Eccentric anomaly
354.69213°
Mean motion
3.83837 °/min
BSTAR
0.00068407
Orbital period
93.79 mins
Loading maneuver chart data...
Loading SW <> Apogee altitude chart data...
Loading historical data...
Loading historical data...
Loading historical data...
Loading historical data...
Loading historical data...
Loading historical data...
Loading historical data...

OBJECT D Visibility forecast

Observer location: undefined°, undefined°

Span
Click to sort rows by Start time (UTC) header in descending order
Start Az.
Max El. time (UTC)
Max El. Az.
Max El.
End time (UTC)
End Az.
5 mins2025-05-08 02:10:27.783Z355.877° N2025-05-08 02:12:27.783Z312.948° NW35.344°2025-05-08 02:15:27.783Z214.283° SW
4 mins2025-05-08 12:43:27.783Z129.207° SE2025-05-08 12:44:27.783Z95.358° ESE34.374°2025-05-08 12:47:27.783Z4.427° NNE
|